SR6WVX Weather Reports


Display with metric or nautical units.
time (UTC)temp
F
wind
direction
speed
MPH
gust
MPH
rain 1hr
in
rain 24hr
in
rain mn
in
humidity
%
barometer
mb
20260905175057 61 270 7.0 11.0 0.02 0.22 0.00 74 1013.5
20260905174557 64 270 7.0 11.0 0.00 0.20 0.00 64 1013.3
20260905174057 65 270 2.0 2.0 0.00 0.20 0.00 59 1012.3
20260905173556 65 270 0.0 0.0 0.00 0.20 0.00 59 1011.8
20260905173056 65 0 0.0 0.0 0.00 0.20 0.00 58 1011.8
20260905172556 65 247 0.0 0.0 0.00 0.20 0.00 57 1011.7
20260905172056 65 225 0.0 3.0 0.00 0.20 0.00 57 1011.5
20260905171555 66 247 0.0 0.0 0.00 0.20 0.00 55 1011.4
20260905171055 66 112 0.0 0.0 0.00 0.20 0.00 55 1011.4
20260905170555 66 247 0.0 5.0 0.00 0.20 0.00 54 1011.3
20260905170055 67 270 5.0 5.0 0.00 0.20 0.00 54 1011.3
20260905165554 67 22 0.0 0.0 0.00 0.20 0.00 53 1011.2
20260905165054 67 180 0.0 6.0 0.00 0.20 0.00 52 1011.3
20260905164554 67 247 6.0 6.0 0.00 0.20 0.00 52 1011.3
20260905164054 67 315 1.0 6.0 0.00 0.20 0.00 52 1011.3
20260905163553 68 270 6.0 6.0 0.00 0.20 0.00 52 1011.3
20260905163053 68 270 0.0 0.0 0.00 0.20 0.00 52 1011.2
20260905162554 68 202 0.0 0.0 0.00 0.20 0.00 51 1011.3
20260905162053 68 270 0.0 10.0 0.00 0.20 0.00 51 1011.2
20260905161552 69 270 0.0 6.0 0.00 0.20 0.00 50 1011.1
20260905161052 69 135 6.0 6.0 0.00 0.20 0.00 50 1010.9
20260905160552 70 67 0.0 0.0 0.00 0.20 0.00 49 1010.9
20260905160052 70 247 0.0 0.0 0.00 0.20 0.00 49 1010.9
20260905155551 70 270 0.0 8.0 0.00 0.20 0.00 49 1010.8
20260905155051 70 202 8.0 8.0 0.00 0.20 0.00 48 1011.0
20260905154551 71 202 0.0 0.0 0.00 0.20 0.00 48 1010.9
20260905154050 71 270 0.0 0.0 0.00 0.20 0.00 48 1010.9
20260905153550 71 45 0.0 0.0 0.00 0.20 0.00 48 1010.7
20260905153050 71 247 0.0 0.0 0.00 0.20 0.00 47 1010.7
20260905152550 71 90 0.0 7.0 0.00 0.20 0.00 46 1010.6
20260905152049 71 157 0.0 3.0 0.00 0.20 0.00 46 1010.7
20260905151549 73 292 0.0 6.0 0.00 0.20 0.00 45 1010.7
20260905151049 74 292 6.0 6.0 0.00 0.20 0.00 44 1010.6
20260905150549 74 225 6.0 6.0 0.00 0.20 0.00 44 1010.7
20260905150048 74 67 0.0 0.0 0.00 0.20 0.00 45 1010.7
20260905145548 73 45 0.0 0.0 0.00 0.20 0.00 45 1010.6
20260905145048 73 180 0.0 5.0 0.00 0.20 0.00 45 1010.8
20260905144548 72 202 5.0 5.0 0.00 0.20 0.00 46 1010.6
20260905144047 72 135 5.0 5.0 0.00 0.20 0.00 46 1010.6
20260905143547 72 157 0.0 1.0 0.00 0.20 0.00 45 1010.7
20260905143047 73 157 0.0 6.0 0.00 0.20 0.00 46 1010.7
20260905142546 73 225 6.0 6.0 0.00 0.20 0.00 46 1010.5
20260905142046 73 292 4.0 4.0 0.00 0.20 0.00 46 1010.5
20260905141546 73 292 4.0 4.0 0.00 0.20 0.00 46 1010.5
20260905141046 73 270 4.0 12.0 0.00 0.20 0.00 45 1010.5
20260905140545 73 225 12.0 12.0 0.00 0.20 0.00 45 1010.5
20260905140045 74 292 9.0 9.0 0.00 0.20 0.00 44 1010.5
20260905135545 74 157 0.0 3.0 0.00 0.20 0.00 46 1010.5
20260905135045 73 67 0.0 4.0 0.00 0.20 0.00 45 1010.6
20260905134544 73 247 4.0 9.0 0.00 0.20 0.00 46 1010.7
20260905134044 73 157 9.0 9.0 0.00 0.20 0.00 46 1010.7
20260905133544 73 225 0.0 0.0 0.00 0.20 0.00 46 1010.6
20260905133044 73 225 0.0 0.0 0.00 0.20 0.00 46 1010.6
20260905132543 74 135 0.0 6.0 0.00 0.20 0.00 45 1010.7
20260905132043 75 157 6.0 14.0 0.00 0.20 0.00 45 1010.7
20260905131543 75 270 14.0 14.0 0.00 0.20 0.00 45 1010.7
20260905131042 75 247 4.0 6.0 0.00 0.20 0.00 46 1010.5
20260905130542 75 180 6.0 14.0 0.00 0.20 0.00 45 1010.6
20260905130042 75 202 14.0 14.0 0.00 0.20 0.00 45 1010.6
20260905125542 76 90 0.0 5.0 0.00 0.20 0.00 45 1010.6
20260905125041 76 337 5.0 7.0 0.00 0.20 0.00 45 1010.6
20260905124541 76 202 7.0 7.0 0.00 0.20 0.00 44 1010.7
20260905124041 76 270 7.0 7.0 0.00 0.20 0.00 44 1010.8
20260905123541 75 225 0.0 6.0 0.00 0.20 0.00 45 1010.7
20260905123040 75 180 6.0 10.0 0.00 0.20 0.00 44 1010.7
20260905122540 77 135 10.0 10.0 0.00 0.20 0.00 42 1010.9
20260905122040 76 247 7.0 7.0 0.00 0.20 0.00 48 1010.8
20260905121540 75 202 0.0 5.0 0.00 0.20 0.00 47 1010.9
20260905121039 75 180 5.0 5.0 0.00 0.20 0.00 48 1011.2
20260905120539 73 292 5.0 5.0 0.00 0.20 0.00 48 1011.2
20260905120039 73 112 0.0 0.0 0.00 0.20 0.00 49 1011.2
20260905115538 73 337 0.0 7.0 0.00 0.20 0.00 48 1011.4
20260905115038 75 270 0.0 0.0 0.00 0.20 0.00 49 1011.3
20260905114538 74 270 0.0 5.0 0.00 0.20 0.00 49 1011.4
20260905114038 73 247 5.0 5.0 0.00 0.20 0.00 50 1011.4
20260905113537 73 247 3.0 7.0 0.00 0.20 0.00 48 1011.5
20260905113037 73 247 0.0 6.0 0.00 0.20 0.00 46 1011.5
20260905112537 76 270 3.0 3.0 0.00 0.20 0.00 44 1011.4
20260905112037 77 157 0.0 0.0 0.00 0.20 0.00 45 1011.4
20260905111536 78 135 0.0 6.0 0.00 0.20 0.00 43 1011.4
20260905111036 78 202 6.0 6.0 0.00 0.20 0.00 45 1011.3
20260905110536 78 202 0.0 0.0 0.00 0.20 0.00 44 1011.1
20260905110036 78 90 0.0 4.0 0.00 0.20 0.00 47 1011.0
20260905105535 77 247 0.0 5.0 0.00 0.20 0.00 46 1011.1
20260905105035 76 202 5.0 5.0 0.00 0.20 0.00 46 1011.2
20260905104535 77 0 0.0 2.0 0.00 0.20 0.00 46 1011.3
20260905104035 77 247 2.0 8.0 0.00 0.20 0.00 48 1011.2
20260905103534 75 112 0.0 0.0 0.00 0.20 0.00 49 1011.2
20260905103034 75 270 0.0 5.0 0.00 0.20 0.00 53 1011.2
20260905102534 73 247 0.0 12.0 0.00 0.20 0.00 55 1011.2
20260905102033 72 270 0.0 3.0 0.00 0.20 0.00 52 1011.3
20260905101533 73 270 3.0 3.0 0.00 0.20 0.00 50 1011.2
20260905101033 75 270 3.0 4.0 0.00 0.20 0.00 51 1011.3
20260905100533 76 292 2.0 3.0 0.00 0.20 0.00 48 1011.1
20260905100032 77 292 0.0 0.0 0.00 0.20 0.00 50 1011.0
20260905095532 76 0 0.0 2.0 0.00 0.20 0.00 52 1010.8
20260905095032 73 180 0.0 0.0 0.00 0.20 0.00 54 1010.9
20260905094532 72 315 0.0 0.0 0.00 0.20 0.00 57 1010.8
20260905094031 70 270 0.0 3.0 0.00 0.20 0.00 57 1010.8
20260905093531 71 292 3.0 3.0 0.00 0.20 0.00 55 1010.9
20260905093031 72 247 0.0 5.0 0.00 0.20 0.00 54 1010.9
20260905092531 73 180 5.0 5.0 0.00 0.20 0.00 54 1010.7
20260905092030 72 247 4.0 5.0 0.00 0.20 0.00 56 1011.0
20260905091530 71 270 5.0 6.0 0.00 0.20 0.00 57 1011.0
20260905091030 71 225 0.0 12.0 0.00 0.20 0.00 55 1011.2
20260905090530 72 247 12.0 12.0 0.00 0.20 0.00 52 1011.1
20260905090029 74 135 2.0 6.0 0.00 0.20 0.00 48 1011.0
20260905085529 77 247 0.0 6.0 0.00 0.20 0.00 50 1011.1
20260905085029 77 22 1.0 7.0 0.00 0.20 0.00 50 1011.1
20260905084528 77 67 0.0 7.0 0.00 0.20 0.00 49 1011.0
20260905084028 77 292 7.0 7.0 0.00 0.20 0.00 51 1010.9
20260905083528 76 270 6.0 6.0 0.00 0.20 0.00 52 1011.0
20260905083028 75 202 0.0 5.0 0.00 0.20 0.00 55 1011.0
20260905082527 73 67 0.0 5.0 0.00 0.20 0.00 57 1011.0
20260905082027 72 270 0.0 1.0 0.00 0.20 0.00 57 1011.0
20260905081527 73 247 1.0 6.0 0.00 0.20 0.00 56 1010.9
20260905070642 72 270 3.0 4.0 0.00 0.20 0.00 62 1010.2
20260905070142 72 247 4.0 6.0 0.00 0.20 0.00 62 1010.1
20260905065642 72 225 6.0 11.0 0.00 0.20 0.00 62 1010.1
20260905065141 72 157 11.0 11.0 0.00 0.20 0.00 62 1010.2
20260905064641 71 112 0.0 1.0 0.00 0.20 0.00 64 1010.2
20260905064141 71 67 0.0 5.0 0.00 0.20 0.00 65 1010.3
20260905063641 70 270 0.0 6.0 0.00 0.20 0.00 65 1010.1
20260905063140 71 225 0.0 5.0 0.00 0.20 0.00 65 1010.2
20260905062640 72 247 0.0 0.0 0.00 0.20 0.00 66 1009.9
20260905062140 72 202 0.0 0.0 0.00 0.20 0.00 68 1010.0
20260905061640 71 67 0.0 0.0 0.00 0.20 0.00 69 1010.0
20260905061139 71 247 0.0 7.0 0.00 0.20 0.00 70 1009.9
20260905060639 70 180 7.0 8.0 0.00 0.20 0.00 71 1009.9
20260905060139 70 180 8.0 8.0 0.00 0.20 0.00 73 1010.0
20260905055638 70 157 0.0 0.0 0.00 0.20 0.00 77 1009.9
20260905055138 69 157 0.0 4.0 0.00 0.20 0.00 79 1009.9
20260905054638 68 112 4.0 4.0 0.00 0.20 0.00 82 1009.9
20260905054138 66 180 0.0 5.0 0.00 0.20 0.00 84 1009.6
20260905053637 66 157 0.0 4.0 0.00 0.20 0.00 87 1009.7
20260905053137 64 157 0.0 6.0 0.00 0.20 0.00 91 1009.7
20260905052637 62 180 0.0 0.0 0.00 0.20 0.00 91 1009.7
20260905052137 60 247 0.0 0.0 0.00 0.20 0.00 91 1009.7
20260905051636 59 247 0.0 0.0 0.00 0.20 0.00 91 1009.6
20260905051136 59 247 0.0 0.0 0.00 0.20 0.00 91 1009.4
20260905050636 59 270 0.0 0.0 0.00 0.20 0.00 92 1009.2
20260905050136 57 292 0.0 0.0 0.00 0.20 0.00 92 1009.2
20260905045635 57 292 0.0 0.0 0.00 0.20 0.00 91 1009.1
20260905045135 57 135 0.0 0.0 0.00 0.20 0.00 91 1009.2
20260905044635 57 135 0.0 0.0 0.00 0.20 0.00 91 1009.0
20260905044134 58 135 0.0 0.0 0.00 0.20 0.00 91 1009.1
20260905043635 58 337 0.0 0.0 0.00 0.20 0.00 91 1009.0
20260905043134 58 0 0.0 0.0 0.00 0.20 0.00 91 1008.9
20260905042634 58 135 0.0 0.0 0.00 0.20 0.00 91 1008.9
20260905041633 58 270 0.0 0.0 0.00 0.20 0.00 91 1008.7
20260905041133 58 292 0.0 0.0 0.00 0.20 0.00 91 1008.8
20260905040633 59 225 0.0 0.0 0.00 0.20 0.00 90 1008.6
20260905040132 59 67 0.0 0.0 0.00 0.20 0.00 90 1008.5
20260905035632 59 67 0.0 0.0 0.00 0.20 0.00 90 1008.3
20260905035132 59 22 0.0 0.0 0.00 0.20 0.00 90 1008.2
20260905034632 59 247 0.0 0.0 0.00 0.20 0.00 91 1008.1
20260905034131 59 247 0.0 0.0 0.00 0.20 0.00 91 1008.3
20260905033631 59 337 0.0 0.0 0.00 0.20 0.00 91 1008.4
20260905033131 59 112 0.0 0.0 0.00 0.20 0.00 91 1008.3
20260905032630 59 112 0.0 0.0 0.00 0.20 0.00 91 1008.4
20260905032130 59 292 0.0 0.0 0.00 0.20 0.00 91 1008.1
20260905031630 59 202 0.0 0.0 0.00 0.20 0.00 91 1008.0
20260905031130 59 292 0.0 0.0 0.00 0.20 0.00 91 1008.0
20260905030629 59 315 0.0 0.0 0.00 0.20 0.00 91 1008.0
20260905030129 59 247 0.0 0.0 0.00 0.20 0.00 91 1007.9
20260905025629 60 225 0.0 0.0 0.00 0.20 0.00 91 1007.6
20260905025129 60 247 0.0 0.0 0.00 0.20 0.00 91 1007.6
20260905024628 60 157 0.0 0.0 0.00 0.20 0.00 91 1007.4
20260905024128 60 157 0.0 0.0 0.00 0.20 0.00 91 1007.3
20260905023628 60 270 0.0 0.0 0.00 0.20 0.00 91 1007.4
20260905023128 60 202 0.0 0.0 0.00 0.20 0.00 91 1007.3
20260905022627 60 270 0.0 1.0 0.00 0.20 0.00 91 1007.1
20260905022127 60 315 0.0 0.0 0.00 0.20 0.00 91 1007.0
20260905021627 60 247 0.0 0.0 0.00 0.20 0.00 92 1007.0
20260905021127 60 270 0.0 0.0 0.00 0.20 0.00 92 1007.1
20260905020626 60 135 0.0 0.0 0.00 0.20 0.00 92 1007.0
20260905020126 60 180 0.0 0.0 0.00 0.20 0.00 92 1006.6
20260905015626 60 270 0.0 0.0 0.00 0.20 0.00 92 1007.0
20260905015125 60 22 0.0 0.0 0.00 0.20 0.00 92 1006.8
20260905014625 60 247 0.0 0.0 0.00 0.20 0.00 93 1006.7
20260905014125 60 247 0.0 2.0 0.00 0.20 0.00 93 1006.6
20260905013625 60 157 2.0 4.0 0.00 0.20 0.00 93 1006.4
20260905013124 60 0 0.0 0.0 0.00 0.20 0.00 93 1006.7
20260905012624 60 0 0.0 0.0 0.00 0.20 0.00 93 1007.1
20260905012124 60 90 0.0 2.0 0.00 0.20 0.00 93 1007.3
20260905011624 60 0 0.0 0.0 0.00 0.20 0.00 93 1006.9
20260905011123 60 202 0.0 0.0 0.00 0.20 0.00 93 1006.6
20260905010623 60 180 0.0 0.0 0.00 0.20 0.00 93 1006.3
20260905010123 60 180 0.0 0.0 0.00 0.20 0.00 93 1006.5
20260905005623 60 270 0.0 0.0 0.00 0.20 0.00 93 1006.5
20260905005122 60 135 0.0 0.0 0.00 0.20 0.00 93 1006.3
20260905004622 60 180 0.0 3.0 0.00 0.20 0.00 93 1006.0
20260905004122 60 157 0.0 0.0 0.00 0.20 0.00 93 1006.3
20260905003622 60 247 0.0 0.0 0.00 0.20 0.00 93 1006.6
20260905003121 60 67 0.0 0.0 0.00 0.20 0.00 93 1006.4
20260905002621 60 180 0.0 0.0 0.00 0.20 0.00 93 1006.6
20260905002121 60 247 0.0 0.0 0.00 0.20 0.00 93 1006.9
20260905001620 60 202 0.0 0.0 0.00 0.20 0.00 93 1006.7
20260905001120 60 225 0.0 0.0 0.00 0.20 0.00 93 1006.5
20260905000620 60 247 0.0 0.0 0.00 0.20 0.00 93 1006.3
20260905000120 60 247 0.0 0.0 0.00 0.20 0.00 93 1006.3
20260904235619 60 135 0.0 8.0 0.00 0.20 0.00 93 1006.3
20260904235119 60 180 0.0 8.0 0.00 0.20 0.00 93 1006.3
20260904234619 60 157 8.0 8.0 0.00 0.20 0.00 93 1006.1
20260904234119 60 270 0.0 0.0 0.00 0.20 0.00 93 1006.1
20260904233618 60 180 0.0 0.0 0.02 0.20 0.00 93 1005.9
20260904233118 60 180 0.0 0.0 0.02 0.20 0.00 93 1005.9
20260904232618 60 337 0.0 0.0 0.02 0.20 0.00 93 1006.3
20260904232118 60 67 0.0 0.0 0.02 0.20 0.00 93 1006.2
20260904231617 60 180 0.0 0.0 0.02 0.20 0.00 93 1006.2
20260904231117 60 337 0.0 0.0 0.02 0.20 0.00 93 1006.2
20260904230617 60 202 0.0 2.0 0.02 0.20 0.00 93 1005.9
20260904230117 60 157 0.0 2.0 0.04 0.20 0.00 93 1005.4
20260904225616 60 157 2.0 2.0 0.04 0.20 0.00 93 1005.5
20260904225116 60 202 0.0 0.0 0.04 0.20 0.00 93 1005.4
20260904224616 60 270 0.0 0.0 0.04 0.20 0.00 93 1005.3
20260904224115 60 67 0.0 0.0 0.04 0.20 0.00 93 1005.1
20260904223615 60 157 0.0 0.0 0.02 0.18 0.00 93 1005.4
20260904223115 60 112 0.0 0.0 0.02 0.18 0.00 93 1005.3
20260904222615 60 157 0.0 7.0 0.04 0.18 0.00 92 1005.6
20260904222114 60 157 7.0 8.0 0.04 0.18 0.00 92 1005.6
20260904221614 60 180 0.0 5.0 0.04 0.18 0.00 92 1005.3
20260904221114 60 157 5.0 5.0 0.06 0.18 0.00 92 1005.4
20260904220614 60 202 0.0 3.0 0.04 0.16 0.00 92 1005.1
20260904220113 60 157 0.0 4.0 0.06 0.16 0.00 92 1005.1
20260904215613 60 112 0.0 0.0 0.08 0.16 0.00 92 1005.3
20260904215113 60 270 0.0 6.0 0.08 0.16 0.00 91 1005.1
20260904214613 60 157 0.0 4.0 0.08 0.16 0.00 91 1005.0
20260904214112 60 202 0.0 8.0 0.08 0.16 0.00 91 1004.9
20260904213612 60 180 1.0 2.0 0.08 0.16 0.00 91 1004.9
20260904213112 60 180 2.0 10.0 0.06 0.14 0.00 91 1005.0
20260904212611 60 247 0.0 0.0 0.06 0.14 0.00 90 1005.0
20260904212111 60 225 0.0 0.0 0.08 0.14 0.00 90 1005.2
20260904211611 60 180 0.0 0.0 0.08 0.14 0.00 90 1004.9
20260904211111 60 180 0.0 4.0 0.06 0.12 0.00 90 1005.1
20260904210610 60 202 4.0 4.0 0.04 0.10 0.00 90 1005.0
20260904210110 60 157 3.0 8.0 0.04 0.10 0.00 89 1004.7
20260904205610 60 157 8.0 8.0 0.04 0.08 0.00 89 1005.5
20260904205110 61 157 1.0 1.0 0.04 0.08 0.00 88 1005.1
20260904204609 61 157 0.0 0.0 0.04 0.08 0.00 88 1005.3
20260904204109 61 180 0.0 0.0 0.04 0.08 0.00 87 1005.3
20260904203609 61 247 0.0 0.0 0.06 0.08 0.00 87 1005.2
20260904203109 61 112 0.0 0.0 0.06 0.08 0.00 86 1005.4
20260904202608 62 45 0.0 0.0 0.06 0.08 0.00 86 1005.4
20260904202108 62 67 0.0 0.0 0.04 0.06 0.00 85 1005.7
20260904201608 62 22 0.0 0.0 0.04 0.06 0.00 84 1005.7
20260904201108 62 315 0.0 0.0 0.04 0.06 0.00 84 1005.6
20260904200607 62 225 0.0 0.0 0.04 0.06 0.00 84 1004.9
20260904200107 62 270 0.0 2.0 0.04 0.06 0.00 84 1005.0
20260904195607 62 270 0.0 4.0 0.02 0.04 0.00 83 1005.0
20260904195106 62 247 0.0 0.0 0.02 0.04 0.00 82 1004.9
20260904194606 63 270 0.0 0.0 0.02 0.04 0.00 81 1005.4
20260904194106 63 247 0.0 5.0 0.02 0.04 0.00 79 1005.7
20260904193606 64 225 5.0 5.0 0.00 0.02 0.00 78 1005.4
20260904193105 65 225 0.0 4.0 0.00 0.02 0.00 76 1005.2
20260904192605 66 270 4.0 19.0 0.00 0.02 0.00 72 1005.1
20260904192105 70 247 10.0 11.0 0.02 0.02 0.00 65 1005.3
20260904191605 70 292 4.0 6.0 0.02 0.02 0.00 64 1004.0
20260904191104 70 225 0.0 6.0 0.02 0.02 0.00 64 1003.9
20260904190604 71 270 6.0 9.0 0.02 0.02 0.00 63 1003.8
20260904190104 71 247 9.0 9.0 0.02 0.02 0.00 63 1003.7
20260904185604 72 270 0.0 8.0 0.02 0.02 0.00 63 1003.5
20260904185103 72 247 8.0 13.0 0.02 0.02 0.00 63 1003.3
20260904184603 72 247 13.0 13.0 0.02 0.02 0.00 65 1003.4
20260904184103 72 270 10.0 10.0 0.02 0.02 0.00 68 1003.6
20260904183603 72 292 7.0 10.0 0.02 0.02 0.00 69 1003.2
20260904183102 72 270 10.0 10.0 0.02 0.02 0.00 71 1003.0
20260904182602 72 270 7.0 10.0 0.02 0.02 0.00 74 1003.0
20260904182102 73 247 10.0 10.0 0.00 0.00 0.00 73 1002.8
20260904181601 75 270 7.0 7.0 0.00 0.00 0.00 65 1002.4
20260904181101 75 157 0.0 4.0 0.00 0.00 0.00 65 1001.3
20260904180601 75 157 0.0 4.0 0.00 0.00 0.00 65 1001.1
20260904180101 75 157 0.0 1.0 0.00 0.00 0.00 65 1000.9
20260904175600 75 135 1.0 1.0 0.00 0.00 0.00 65 1000.8